Regional Weather Roundup
Issued by NWS

Home | Current Version | Previous Version | Text Only | Print | Product List | Glossary Off
Versions: 1 2 3 4 5 6 7 8 9 10 11 12 13 14 15 16 17 18 19 20 21 22 23 24 25 26 27 28 29 30 31 32 33 34 35 36 37 38 39 40 41 42 43 44 45 46 47 48 49 50

000
ASUS45 KBOU 241507
RWRCO

WEATHER ROUNDUP FOR COLORADO
NATIONAL WEATHER SERVICE DENVER/BOULDER CO
900 AM MDT FRI APR 24 2015

NOTE: "FAIR" INDICATES FEW OR NO CLOUDS BELOW 12000 FEET WITH NO
SIGNIFICANT WEATHER AND/OR OBSTRUCTIONS TO VISIBILITY.

COZ001>005-013-030-031-241600-
...NORTHWEST COLORADO...

CITY           SKY/WX    TMP DP  RH WIND       PRES   REMARKS
CRAIG          MOSUNNY   43  35  73 W3        29.80F
HAYDEN         MOSUNNY   45  30  57 E10       29.81F
MEEKER         SUNNY     43  30  60 CALM      29.81F
MOUNT WERNER   NOT AVBL
STEAMBOAT SPGS SUNNY     38  31  73 CALM      29.82F
WALDEN         MOSUNNY   41  27  56 S6        29.83F
$$

COZ006>008-011-241600-
...WEST CENTRAL VALLEYS...

CITY           SKY/WX    TMP DP  RH WIND       PRES   REMARKS
GRAND JUNCTION MOSUNNY   54  33  45 SE12      29.78R
MONTROSE       PTSUNNY   50  33  52 N6        29.84S
EAGLE          MOSUNNY   41  28  60 CALM      29.86F
RIFLE          MOSUNNY   47  31  53 CALM      29.81F
DELTA          PTSUNNY   51  32  48 E9        29.82F
NUCLA          PTSUNNY   50  28  43 CALM      29.88S
$$

COZ017>023-064>068-241600-
...SOUTHWEST COLORADO...

CITY           SKY/WX    TMP DP  RH WIND       PRES   REMARKS
DURANGO        MOSUNNY   42  35  76 SE3       29.91R
CORTEZ         SUNNY     52  30  43 S6        29.88R
PAGOSA SPRINGS MOSUNNY   38  37  93 CALM      29.93S
TELLURIDE      MOSUNNY   42  19  39 W3        29.92R
WOLF CREEK PAS CLOUDY    23  21  93 SW17G24   30.01R WCI   9
$$

COZ009-010-012-014-032>034-037-058>063-241600-
...CENTRAL COLORADO...

CITY           SKY/WX    TMP DP  RH WIND       PRES   REMARKS
ASPEN          MOSUNNY   44  22  41 S3        29.84F
BUENA VISTA    PTSUNNY   41  27  57 CALM      29.86F
COPPER MTN     NOT AVBL
BERTHOUD PASS  PTSUNNY   23  14  68 NW24G32   29.96F WCI   7
COTTONWOOD PAS PTSUNNY   41  23  48 N5        29.89F
GUNNISON       MOSUNNY   37  27  65 CALM      29.92F
KREMMLING      CLOUDY    37  30  75 E3        29.87F
LEADVILLE      MOSUNNY   35  18  49 N6G16     29.89F WCI  30
SALIDA         PTSUNNY   46  29  51 N9        29.91F
SUNLIGHT       MOSUNNY   34  23  64 CALM      29.97S
WILKERSON PASS MOSUNNY   32  16  51 NW8       29.95F WCI  25
$$

COZ069>075-241600-
...SAN LUIS VALLEY/SANGRE DE CRISTO MOUNTAINS...

CITY           SKY/WX    TMP DP  RH WIND       PRES   REMARKS
ALAMOSA        MOSUNNY   46  25  43 W7        29.87S
LA VETA PASS   MOSUNNY   32  27  80 S12G20    29.91F WCI  23
SAGUACHE       MOSUNNY   43  30  61 NW12      29.87F
$$

COZ035-036-038>040-241600-
...NORTHERN COLORADO FRONT RANGE...

CITY           SKY/WX    TMP DP  RH WIND       PRES   REMARKS
DENVER INTL AP MOSUNNY   56  29  35 S9        29.73F
DMNS CITY PARK   N/A     56  28  33 S6        29.72F
AURORA         MOSUNNY   55  29  36 S7        29.74F
FRONT RANGE AP NOT AVBL
ERIE MUNI ARPT PTSUNNY   56  33  41 CALM      29.72F
BOULDER MUN AP SUNNY     54  32  43 NE5       29.72F
CENTENNIAL     MOSUNNY   55  25  31 SW6       29.74F
BROOMFIELD     MOSUNNY   54  32  43 VRB3      29.74F
FORT COLLINS   SUNNY     52  36  54 CALM      29.74F
LONGMONT       SUNNY     58  37  45 CALM      29.74S
$$

COZ041-046-047-076>085-087-088-241600-
...PIKES PEAK/PALMER DIVIDE AND SOUTHERN FOOTHILLS...

CITY           SKY/WX    TMP DP  RH WIND       PRES   REMARKS
COLO. SPRINGS  MOSUNNY   58  22  24 NW8       29.75F
A. F. ACADEMY  MOSUNNY   56  20  24 NW15G21   29.75F
ELLICOTT       MOSUNNY  N/A N/A N/A NE3       29.74F
FALCON         MOSUNNY   56  19  22 N9        29.79F
FORT CARSON    MOSUNNY   49  31  50 NE3       29.73F
LIMON          PTSUNNY   53  39  59 W7        29.73F
MONUMENT HILL  SUNNY     52  21  30 CALM      29.78F
TRINIDAD       PTSUNNY   56  29  35 W14       29.76S
$$

COZ042>045-048>051-090-091-241600-
...NORTHEAST COLORADO...

CITY           SKY/WX    TMP DP  RH WIND       PRES   REMARKS
GREELEY ARPT   MOSUNNY   52  37  58 CALM      29.74S
AKRON          SUNNY     53  44  71 W14       29.70F
BURLINGTON     MOSUNNY   56  49  77 W7        29.68F
WRAY           MOSUNNY   60  51  72 SW8       29.66F
STERLING       SUNNY     52  46  82 SW6       29.70F
HOLYOKE        MOSUNNY   55  50  82 W10       29.67F
FORT MORGAN    SUNNY     56  44  64 W8        29.72S
$$

COZ086-089-092>099-241600-
...SOUTHEAST COLORADO...

CITY           SKY/WX    TMP DP  RH WIND       PRES   REMARKS
PUEBLO         CLOUDY    53  33  46 W6        29.71F
LA JUNTA       PTSUNNY   54  48  80 S5        29.71F
LAMAR          PTSUNNY   56  50  80 NW7       29.67F
SPRINGFIELD      N/A     61  33  35 NW12      29.68F
$$


USA.gov is the U.S. government's official web portal to all federal, state and local government web resources and services.